Find Starlink 32909

NORAD ID: 62894 Int'l Des: 2025-024 Owner: SPXS Country: US Constellation: starlink operational
LEOCIRCULAR

現在のビュー

3D地球を読み込み中...

About Starlink 32909

Starlink 32909 (NORAD 62894) is a starlink constellation satellite (v2 mini) launched Feb 4, 2025 by SPXS of US. It operates in LEO, CIRCULAR orbit with a mass of 730.00 kg.

Starlink 32909について

説明を読み込み中...

次回通過

Passes for default location (London). Set your location on the main map for personalized predictions.

高度履歴

Loading altitude history...

軌道要素

1 62894U 25024R 26171.22069182 .00008750 00000-0 32696-3 0 9998
2 62894 43.0030 106.5884 0001443 268.6801 91.3886 15.27595441 77941
Epoch: Jun 20, 2026 • Age: 34 hours

現在のステータス

高度 482.9 km
速度 7.63 km/s
衛星直下点 19.89°N, 122.58°E
打ち上げ日 Feb 4, 2025
運用期間 1.3 years
タイプ internet

技術仕様

分類 Payload
質量 730.00 kg
乾燥質量 700.00 kg
総質量 730.00 kg
長さ 0.30 m
直径 4.10 m
スパン 29.00 m
形状 Box + pan
製造者 SPXS
バスタイプ Starlink V2M
フェーズステータス In Orbit
所有者/国 SPXS/US

Most Searched